CW3996 Weather Reports


Display with metric or nautical units.
time (UTC)temp
F
wind
direction
speed
MPH
gust
MPH
rain 1hr
in
rain 24hr
in
rain mn
in
humidity
%
barometer
mb
20260506073225 51 171 4.0 5.0 0.00 0.00 0.00 45 1012.4
20260506072718 50 171 2.0 7.0 0.00 0.00 0.00 46 1012.3
20260506072217 50 171 2.0 7.0 0.00 0.00 0.00 46 1012.2
20260506071731 50 171 6.0 8.0 0.00 0.00 0.00 44 1012.1
20260506071225 50 171 7.0 8.0 0.00 0.00 0.00 44 1011.9
20260506070719 50 172 7.0 10.0 0.00 0.00 0.00 44 1011.9
20260506070215 50 171 7.0 10.0 0.00 0.00 0.00 44 1011.7
20260506062227 49 171 7.0 8.0 0.00 0.00 0.00 44 1011.6
20260506061721 49 171 7.0 9.0 0.00 0.00 0.00 44 1011.5
20260506061215 49 171 8.0 10.0 0.00 0.00 0.00 44 1011.5
20260506060729 49 171 8.0 10.0 0.00 0.00 0.00 43 1011.3
20260506060245 49 174 8.0 10.0 0.00 0.00 0.00 43 1011.2
20260506051251 49 176 8.0 11.0 0.00 0.00 0.00 40 1011.1
20260506050723 49 176 9.0 11.0 0.00 0.00 0.00 40 1011.1
20260506050218 49 192 7.0 10.0 0.00 0.00 0.00 40 1011.0
20260506044720 49 197 7.0 8.0 0.00 0.00 0.00 40 1011.1
20260506044214 49 199 7.0 9.0 0.00 0.00 0.00 40 1011.1
20260506043728 49 199 7.0 9.0 0.00 0.00 0.00 39 1011.1
20260506043226 50 202 6.0 9.0 0.00 0.00 0.00 39 1011.1
20260506042719 50 202 7.0 9.0 0.00 0.00 0.00 39 1011.1
20260506042254 50 203 7.0 9.0 0.00 0.00 0.00 39 1011.1
20260506041727 50 203 7.0 9.0 0.00 0.00 0.00 38 1011.0
20260506041221 51 202 6.0 7.0 0.00 0.00 0.00 37 1011.0
20260506040715 51 203 4.0 6.0 0.00 0.00 0.00 38 1011.0
20260506040229 50 202 2.0 7.0 0.00 0.00 0.00 39 1011.0
20260506035722 50 202 5.0 7.0 0.00 0.00 0.00 39 1011.0
20260506035219 51 202 5.0 6.0 0.00 0.00 0.00 37 1010.8
20260506034753 52 203 3.0 7.0 0.00 0.00 0.00 36 1010.9
20260506034227 52 202 4.0 7.0 0.00 0.00 0.00 37 1010.9
20260506033740 52 202 5.0 6.0 0.00 0.00 0.00 36 1010.7
20260506033253 51 202 2.0 5.0 0.00 0.00 0.00 36 1010.6
20260506032727 52 202 3.0 5.0 0.00 0.00 0.00 36 1010.5
20260506032241 52 202 1.0 4.0 0.00 0.00 0.00 36 1010.5
20260506031714 53 202 3.0 5.0 0.00 0.00 0.00 33 1010.3
20260506031228 53 202 2.0 5.0 0.00 0.00 0.00 33 1010.3
20260506030721 52 203 3.0 4.0 0.00 0.00 0.00 35 1010.2
20260506030221 52 203 2.0 3.0 0.00 0.00 0.00 34 1010.2
20260506025734 52 202 0.0 0.0 0.00 0.00 0.00 34 1010.1
20260506025228 53 202 0.0 1.0 0.00 0.00 0.00 33 1010.1
20260506024721 53 202 0.0 2.0 0.00 0.00 0.00 32 1010.0
20260506024216 53 202 0.0 2.0 0.00 0.00 0.00 32 1010.0
20260506023730 51 202 0.0 0.0 0.00 0.00 0.00 36 1009.9
20260506023223 52 202 0.0 0.0 0.00 0.00 0.00 35 1009.8
20260506022717 55 202 0.0 0.0 0.00 0.00 0.00 31 1009.7
20260506022231 56 202 0.0 0.0 0.00 0.00 0.00 30 1009.7
20260506021724 56 202 0.0 0.0 0.00 0.00 0.00 30 1009.6
20260506021222 56 202 0.0 0.0 0.00 0.00 0.00 28 1009.5
20260506020716 57 202 0.0 0.0 0.00 0.00 0.00 28 1009.6
20260506020231 58 202 0.0 0.0 0.00 0.00 0.00 25 1009.5
20260506015725 59 202 0.0 0.0 0.00 0.00 0.00 22 1009.4
20260506015219 60 202 0.0 2.0 0.00 0.00 0.00 22 1009.3
20260506014713 60 202 0.0 2.0 0.00 0.00 0.00 22 1009.3
20260506014228 61 202 0.0 2.0 0.00 0.00 0.00 21 1009.4
20260506013725 61 202 0.0 2.0 0.00 0.00 0.00 22 1009.4
20260506013219 60 202 0.0 2.0 0.00 0.00 0.00 22 1009.3
20260506012732 60 202 0.0 0.0 0.00 0.00 0.00 21 1009.3
20260506012226 60 202 0.0 1.0 0.00 0.00 0.00 23 1009.2
20260506011720 60 202 0.0 1.0 0.00 0.00 0.00 20 1009.2
20260506011214 60 202 0.0 3.0 0.00 0.00 0.00 20 1009.2
20260506010728 61 202 1.0 3.0 0.00 0.00 0.00 20 1009.2
20260506010224 61 202 0.0 3.0 0.00 0.00 0.00 21 1009.1
20260506005721 61 202 0.0 6.0 0.00 0.00 0.00 22 1009.1
20260506005216 61 202 3.0 7.0 0.00 0.00 0.00 21 1009.2
20260506004730 61 202 3.0 7.0 0.00 0.00 0.00 22 1009.1
20260506004224 61 202 3.0 7.0 0.00 0.00 0.00 21 1009.1
20260506003717 61 202 5.0 7.0 0.00 0.00 0.00 21 1009.1
20260506003232 61 205 6.0 7.0 0.00 0.00 0.00 20 1009.0
20260506002726 62 206 4.0 6.0 0.00 0.00 0.00 19 1009.0
20260506002239 62 206 2.0 4.0 0.00 0.00 0.00 20 1009.0
20260506001716 61 206 1.0 5.0 0.00 0.00 0.00 21 1009.0
20260506001230 61 206 3.0 6.0 0.00 0.00 0.00 21 1009.0
20260506000724 61 206 1.0 6.0 0.00 0.00 0.00 21 1009.0
20260506000220 61 206 4.0 10.0 0.00 0.00 0.00 21 1008.9
20260505235715 62 206 5.0 10.0 0.00 0.00 0.00 19 1008.9
20260505235229 63 207 7.0 10.0 0.00 0.00 0.00 20 1008.8
20260505234722 63 210 2.0 6.0 0.00 0.00 0.00 18 1008.8
20260505234217 63 210 3.0 5.0 0.00 0.00 0.00 20 1008.8
20260505233714 63 210 2.0 7.0 0.00 0.00 0.00 18 1008.9
20260505233249 63 210 3.0 8.0 0.00 0.00 0.00 18 1008.9
20260505232742 62 210 4.0 8.0 0.00 0.00 0.00 20 1008.9
20260505232235 61 210 3.0 6.0 0.00 0.00 0.00 20 1008.8
20260505231727 61 210 2.0 5.0 0.00 0.00 0.00 20 1008.8
20260505231222 62 210 3.0 6.0 0.00 0.00 0.00 19 1008.9
20260505230717 62 210 2.0 6.0 0.00 0.00 0.00 20 1008.9
20260505230231 63 210 3.0 10.0 0.00 0.00 0.00 19 1009.0
20260505225725 63 210 7.0 10.0 0.00 0.00 0.00 18 1009.0
20260505225218 63 162 6.0 11.0 0.00 0.00 0.00 19 1009.0
20260505224716 63 151 6.0 10.0 0.00 0.00 0.00 19 1009.1
20260505224229 62 150 8.0 10.0 0.00 0.00 0.00 20 1009.1
20260505223723 61 129 2.0 9.0 0.00 0.00 0.00 23 1009.1
20260505223217 61 129 3.0 9.0 0.00 0.00 0.00 22 1009.1
20260505222731 60 129 1.0 9.0 0.00 0.00 0.00 23 1009.2
20260505222226 60 129 2.0 9.0 0.00 0.00 0.00 23 1009.3
20260505221719 60 128 4.0 10.0 0.00 0.00 0.00 22 1009.4
20260505221254 60 128 5.0 11.0 0.00 0.00 0.00 23 1009.4
20260505220726 60 128 6.0 11.0 0.00 0.00 0.00 25 1009.5
20260505220226 60 128 6.0 11.0 0.00 0.00 0.00 23 1009.5
20260505215719 61 126 6.0 14.0 0.00 0.00 0.00 24 1009.7
20260505215213 60 126 8.0 15.0 0.00 0.00 0.00 24 1009.7
20260505214727 60 115 5.0 15.0 0.00 0.00 0.00 23 1009.8
20260505214222 61 111 6.0 13.0 0.00 0.00 0.00 23 1009.8
20260505213715 61 106 6.0 11.0 0.00 0.00 0.00 22 1009.9
20260505213229 60 104 4.0 14.0 0.00 0.00 0.00 25 1009.9
20260505212728 60 104 8.0 14.0 0.00 0.00 0.00 23 1010.0
20260505212222 60 101 9.0 14.0 0.00 0.00 0.00 23 1010.1
20260505211736 60 10 5.0 11.0 0.00 0.00 0.00 22 1010.1
20260505211229 60 5 0.0 5.0 0.00 0.00 0.00 24 1010.2
20260505210723 60 5 3.0 5.0 0.00 0.00 0.00 22 1010.2
20260505210219 59 5 2.0 5.0 0.00 0.00 0.00 23 1010.2
20260505205752 59 5 1.0 6.0 0.00 0.00 0.00 24 1010.3
20260505205226 58 5 2.0 11.0 0.00 0.00 0.00 24 1010.4
20260505204719 58 5 3.0 13.0 0.00 0.00 0.00 24 1010.4
20260505204238 58 5 10.0 13.0 0.00 0.00 0.00 24 1010.3
20260505203730 58 360 5.0 21.0 0.00 0.00 0.00 25 1010.3
20260505203224 58 360 5.0 21.0 0.00 0.00 0.00 25 1010.3
20260505202717 59 344 12.0 18.0 0.00 0.00 0.00 23 1010.2
20260505202252 59 321 6.0 14.0 0.00 0.00 0.00 21 1010.2
20260505201724 60 311 5.0 14.0 0.00 0.00 0.00 21 1010.2
20260505201218 61 272 7.0 11.0 0.00 0.00 0.00 18 1010.1
20260505200732 61 270 7.0 16.0 0.00 0.00 0.00 17 1010.0
20260505200247 61 267 8.0 18.0 0.00 0.00 0.00 17 1009.9
20260505195719 61 290 11.0 18.0 0.00 0.00 0.00 18 1009.9
20260505195217 62 294 7.0 15.0 0.00 0.00 0.00 18 1009.9
20260505194731 62 277 10.0 14.0 0.00 0.00 0.00 17 1009.8
20260505194225 62 265 6.0 11.0 0.00 0.00 0.00 17 1009.8
20260505193718 61 265 8.0 11.0 0.00 0.00 0.00 18 1009.7
20260505193233 61 260 5.0 11.0 0.00 0.00 0.00 18 1009.7
20260505192727 61 260 5.0 11.0 0.00 0.00 0.00 17 1009.7
20260505192221 61 261 6.0 9.0 0.00 0.00 0.00 19 1009.8
20260505191715 61 260 4.0 12.0 0.00 0.00 0.00 18 1009.7
20260505191213 61 260 7.0 16.0 0.00 0.00 0.00 18 1009.8
20260505190727 62 252 11.0 16.0 0.00 0.00 0.00 18 1009.8
20260505190222 63 238 8.0 16.0 0.00 0.00 0.00 17 1009.8
20260505185736 63 229 7.0 16.0 0.00 0.00 0.00 16 1009.7
20260505185229 65 252 8.0 14.0 0.00 0.00 0.00 16 1009.8
20260505184723 64 250 7.0 12.0 0.00 0.00 0.00 17 1009.8
20260505184218 63 223 7.0 12.0 0.00 0.00 0.00 16 1009.8
20260505183732 63 227 4.0 15.0 0.00 0.00 0.00 16 1009.8
20260505183226 64 223 9.0 15.0 0.00 0.00 0.00 16 1009.9
20260505182720 64 218 8.0 12.0 0.00 0.00 0.00 16 1010.0
20260505182233 63 224 7.0 14.0 0.00 0.00 0.00 18 1009.9
20260505181727 64 209 10.0 18.0 0.00 0.00 0.00 17 1009.9
20260505181221 63 186 7.0 18.0 0.00 0.00 0.00 17 1009.9
20260505180734 64 221 10.0 17.0 0.00 0.00 0.00 17 1010.0
20260505180228 64 223 10.0 16.0 0.00 0.00 0.00 16 1010.0
20260505175722 63 213 10.0 16.0 0.00 0.00 0.00 18 1010.1
20260505175220 61 221 2.0 16.0 0.00 0.00 0.00 18 1010.1
20260505174714 63 217 9.0 16.0 0.00 0.00 0.00 17 1010.2
20260505174228 64 224 9.0 14.0 0.00 0.00 0.00 17 1010.2
20260505173722 64 216 11.0 16.0 0.00 0.00 0.00 17 1010.2
20260505173216 63 220 9.0 16.0 0.00 0.00 0.00 20 1010.2
20260505172730 61 217 8.0 13.0 0.00 0.00 0.00 21 1010.2
20260505172225 60 202 8.0 18.0 0.00 0.00 0.00 21 1010.2
20260505171717 60 185 8.0 18.0 0.00 0.00 0.00 20 1010.2
20260505171216 61 200 9.0 14.0 0.00 0.00 0.00 20 1010.1
20260505170730 62 190 10.0 16.0 0.00 0.00 0.00 20 1010.2
20260505170225 62 206 8.0 16.0 0.00 0.00 0.00 21 1010.1
20260505165719 61 163 10.0 15.0 0.00 0.00 0.00 20 1010.1
20260505165233 61 187 7.0 14.0 0.00 0.00 0.00 21 1010.0
20260505164726 61 173 9.0 20.0 0.00 0.00 0.00 20 1010.0
20260505164221 61 207 10.0 20.0 0.00 0.00 0.00 21 1010.1
20260505163715 60 230 8.0 18.0 0.00 0.00 0.00 21 1010.0
20260505163213 60 176 10.0 18.0 0.00 0.00 0.00 21 1010.1
20260505162747 59 194 11.0 18.0 0.00 0.00 0.00 23 1010.2
20260505162220 59 205 10.0 18.0 0.00 0.00 0.00 24 1010.2
20260505161713 59 196 8.0 20.0 0.00 0.00 0.00 24 1010.2
20260505161227 59 211 12.0 18.0 0.00 0.00 0.00 23 1010.1
20260505160721 59 217 9.0 17.0 0.00 0.00 0.00 23 1010.2
20260505160217 59 192 11.0 17.0 0.00 0.00 0.00 22 1010.3
20260505153223 57 207 14.0 19.0 0.00 0.00 0.00 24 1010.1
20260505152716 56 209 9.0 16.0 0.00 0.00 0.00 25 1010.2
20260505152229 57 204 10.0 17.0 0.00 0.00 0.00 24 1010.2
20260505151723 56 138 10.0 22.0 0.00 0.00 0.00 25 1010.2
20260505151221 55 205 15.0 22.0 0.00 0.00 0.00 25 1010.2
20260505150716 56 207 14.0 20.0 0.00 0.00 0.00 25 1010.2
20260505150231 56 154 12.0 20.0 0.00 0.00 0.00 25 1010.2
20260505140219 53 198 13.0 19.0 0.00 0.00 0.00 26 1010.2
20260505130232 51 203 10.0 18.0 0.00 0.00 0.00 28 1009.9
20260505124753 50 196 9.0 10.0 0.00 0.00 0.00 28 1009.9
20260505124227 50 192 5.0 10.0 0.00 0.00 0.00 29 1009.8
20260505123720 50 191 5.0 15.0 0.00 0.00 0.00 28 1009.8
20260505123215 51 191 6.0 15.0 0.00 0.00 0.00 27 1009.8
20260505122729 51 178 6.0 13.0 0.00 0.00 0.00 26 1009.7
20260505122227 51 173 9.0 16.0 0.00 0.00 0.00 26 1009.6
20260505121722 51 190 6.0 16.0 0.00 0.00 0.00 26 1009.6
20260505121216 51 131 7.0 17.0 0.00 0.00 0.00 26 1009.5
20260505120730 51 188 8.0 14.0 0.00 0.00 0.00 25 1009.5
20260505120226 51 175 7.0 14.0 0.00 0.00 0.00 25 1009.5
20260505115718 52 162 9.0 16.0 0.00 0.00 0.00 24 1009.5
20260505115231 52 157 9.0 16.0 0.00 0.00 0.00 24 1009.4
20260505114724 52 138 9.0 17.0 0.00 0.00 0.00 24 1009.4
20260505114218 52 157 10.0 17.0 0.00 0.00 0.00 24 1009.4
20260505113716 52 144 10.0 21.0 0.00 0.00 0.00 24 1009.3
20260505113229 52 180 11.0 21.0 0.00 0.00 0.00 25 1009.2
20260505112724 52 194 12.0 18.0 0.00 0.00 0.00 24 1009.1
20260505112218 52 145 10.0 21.0 0.00 0.00 0.00 25 1009.0
20260505111731 52 194 11.0 22.0 0.00 0.00 0.00 24 1009.1
20260505111245 52 178 12.0 22.0 0.00 0.00 0.00 24 1009.3
20260505110718 52 161 10.0 20.0 0.00 0.00 0.00 24 1009.3
20260505110213 52 168 13.0 21.0 0.00 0.00 0.00 23 1009.3
20260505101720 53 180 12.0 21.0 0.00 0.00 0.00 25 1009.6
20260505101214 53 191 11.0 22.0 0.00 0.00 0.00 25 1009.6
20260505100732 53 185 11.0 22.0 0.00 0.00 0.00 25 1009.7
20260505100227 53 190 11.0 22.0 0.00 0.00 0.00 25 1009.8
20260505095741 53 172 10.0 22.0 0.00 0.00 0.00 25 1009.8
20260505095233 53 154 11.0 18.0 0.00 0.00 0.00 25 1009.8
20260505094726 53 194 10.0 18.0 0.00 0.00 0.00 25 1009.9
20260505094220 53 169 11.0 20.0 0.00 0.00 0.00 24 1009.8
20260505093715 54 196 9.0 24.0 0.00 0.00 0.00 24 1009.8
20260505093229 54 158 14.0 24.0 0.00 0.00 0.00 24 1009.8
20260505092726 54 142 12.0 19.0 0.00 0.00 0.00 24 1009.8
20260505092220 54 131 9.0 23.0 0.00 0.00 0.00 24 1009.8
20260505091714 54 181 13.0 23.0 0.00 0.00 0.00 24 1009.8
20260505091226 53 182 11.0 19.0 0.00 0.00 0.00 24 1009.8
20260505090720 52 195 8.0 18.0 0.00 0.00 0.00 26 1009.8
20260505090215 53 200 8.0 18.0 0.00 0.00 0.00 25 1009.8
20260505085728 53 180 8.0 15.0 0.00 0.00 0.00 25 1009.8
20260505085222 53 170 7.0 13.0 0.00 0.00 0.00 25 1009.9
20260505084720 53 173 8.0 13.0 0.00 0.00 0.00 25 1010.0
20260505084215 53 183 4.0 12.0 0.00 0.00 0.00 25 1010.0
20260505083728 53 182 5.0 12.0 0.00 0.00 0.00 25 1010.0
20260505083222 53 182 6.0 15.0 0.00 0.00 0.00 24 1010.0
20260505082715 53 184 8.0 15.0 0.00 0.00 0.00 24 1010.0
20260505082228 53 181 6.0 12.0 0.00 0.00 0.00 24 1010.1
20260505081722 54 184 6.0 12.0 0.00 0.00 0.00 24 1010.2
20260505081216 54 187 5.0 9.0 0.00 0.00 0.00 28 1010.3
20260505080713 54 244 3.0 11.0 0.00 0.00 0.00 33 1010.3
20260505080228 54 244 5.0 21.0 0.00 0.00 0.00 32 1010.2
20260505075720 55 235 10.0 29.0 0.00 0.00 0.00 31 1010.3
20260505075215 56 233 20.0 29.0 0.00 0.00 0.00 29 1010.4
20260505074749 56 199 8.0 16.0 0.00 0.00 0.00 21 1010.3